AO-07 1 07530U 74089B 23096.53821815 -.00000045 00000-0 47302-5 0 9997 2 07530 101.9440 82.7425 0012056 199.2891 275.5374 12.53662985214194 UO-11 1 14781U 84021B 23096.55527772 .00002476 00000-0 29885-3 0 9990 2 14781 97.6520 76.2978 0009923 79.6751 280.5582 14.84617452 83518 AO-16 1 20439U 90005D 23096.47805524 .00000304 00000-0 12800-3 0 9998 2 20439 98.8806 84.8841 0011738 56.9412 59.3712 14.33064160734637 LO-19 1 20442U 90005G 23096.40477867 .00000327 00000-0 13577-3 0 9997 2 20442 98.8380 71.4125 0012390 33.9801 326.2173 14.33218366735061 HUBBLE 1 20580U 90037B 23096.24045413 .00005512 00000-0 29702-3 0 9993 2 20580 28.4707 26.5127 0002582 323.7444 161.6787 15.12618980610556 MET-2/21 1 22782U 93055A 23096.70017847 .00000109 00000-0 85231-4 0 9990 2 22782 82.5480 141.5137 0021019 242.7905 257.1232 13.83881010494837 AO-27 1 22825U 93061C 23096.36392466 .00000185 00000-0 89209-4 0 9993 2 22825 98.8504 138.0666 0007314 278.5503 81.4850 14.30277729540029 IO-26 1 22826U 93061D 23096.59519706 .00000198 00000-0 93367-4 0 9991 2 22826 98.8450 138.1669 0007886 261.7598 98.2690 14.30635163540327 FO-29 1 24278U 96046B 23096.46616707 -.00000013 00000-0 24938-4 0 9990 2 24278 98.5243 84.8120 0349321 242.8767 113.6348 13.53140797315237 NOAA-15 1 25338U 98030A 23096.81347473 .00000267 00000-0 12946-3 0 9998 2 25338 98.6141 127.0663 0010946 156.7580 203.4097 14.26284910295085 GO-32 1 25397U 98043D 23096.47387386 .00000163 00000-0 91167-4 0 9994 2 25397 98.8613 53.3419 0001479 29.3703 330.7558 14.23851675285124 ISS 1 25544U 98067A 23096.88423170 .00016547 00000-0 30170-3 0 9990 2 25544 51.6417 321.8555 0006781 161.6809 210.4012 15.49563419390737 NO-44 1 26931U 01043C 23096.27700687 .00000342 00000-0 16156-3 0 9997 2 26931 67.0534 22.4959 0007141 282.0031 78.0269 14.30877774123295 SO-50 1 27607U 02058C 23096.47191443 .00001661 00000-0 24416-3 0 9994 2 27607 64.5536 124.7584 0074858 239.0284 120.3449 14.77065076 91639 CO-55 1 27844U 03031E 23096.51718714 .00000556 00000-0 26772-3 0 9999 2 27844 98.6807 104.8193 0009324 340.4307 19.6512 14.22712915 25544 CO-57 1 27848U 03031J 23096.50381142 .00000462 00000-0 22763-3 0 9995 2 27848 98.6843 105.2481 0009522 355.8801 4.2297 14.22232179 25361 RS-22 1 27939U 03042A 23096.69694721 .00002070 00000-0 36833-3 0 9998 2 27939 98.2294 243.1748 0012368 8.0418 352.0980 14.68156871 44053 NOAA-18 1 28654U 05018A 23096.75629024 .00000290 00000-0 17941-3 0 9990 2 28654 98.9130 171.4848 0013761 218.3967 141.6227 14.12905772921489 CO-58 1 28895U 05043F 23095.90424471 .00002458 00000-0 46342-3 0 9995 2 28895 98.1408 228.5796 0015188 301.5738 58.3982 14.65352504930454 CO-65 1 32785U 08021C 23096.50437757 .00005210 00000-0 52315-3 0 9991 2 32785 97.6993 64.0549 0011903 350.6469 9.4527 14.91651805810135 AAUSAT2 1 32788U 08021F 23096.45605222 .00011799 00000-0 89742-3 0 9995 2 32788 97.5569 77.5785 0005474 219.1728 140.9101 15.02264755812330 DO-64 1 32789U 08021G 23096.49027198 .00047972 00000-0 17037-2 0 9999 2 32789 97.3114 118.8379 0007456 41.9934 318.1877 15.28848388816404 CO-66 1 32791U 08021J 23096.44943669 .00007743 00000-0 69896-3 0 9990 2 32791 97.6495 69.2671 0010460 296.8272 63.1879 14.95735996810935 RS-30 1 32953U 08025A 23096.81712961 .00000024 00000-0 10000-3 0 9992 2 32953 82.5103 1.4918 0019624 343.5557 16.4887 12.43121530674788 PRISM 1 33493U 09002B 23096.81563614 .00012316 00000-0 87411-3 0 9994 2 33493 98.2504 106.4088 0014269 287.3728 72.5936 15.04822126773019 NOAA-19 1 33591U 09005A 23096.86271797 .00000259 00000-0 16413-3 0 9996 2 33591 99.1088 141.6230 0014858 84.8501 275.4365 14.12726544729878 SRMSAT 1 37841U 11058D 23096.57120106 .00000516 00000-0 13839-3 0 9999 2 37841 19.9719 283.0129 0011856 325.1563 72.6858 14.10866854592681 HRBE 1 37855U 11061F 23096.60453012 .00025383 00000-0 87194-3 0 9991 2 37855 101.7047 18.4249 0126668 258.6870 100.0096 15.22745891626120 RS-40 1 38735U 12041C 23096.57510026 .00000046 00000-0 26196-3 0 9997 2 38735 82.4727 82.7459 0018585 92.2192 268.1014 12.42592709484925 ZACUBE-1 1 39417U 13066B 23096.52356370 .00004257 00000-0 49922-3 0 9998 2 39417 97.6789 60.7642 0055974 161.2416 199.0879 14.84351876506560 Delfi-N3xt 1 39428U 13066N 23096.33831436 .00007640 00000-0 11119-2 0 9995 2 39428 97.8326 23.7692 0114096 60.5090 300.7441 14.71748751501564 GOMX-1 1 39430U 13066Q 23096.65032213 .00002870 00000-0 50668-3 0 9992 2 39430 97.7888 351.9496 0145649 199.1486 160.4193 14.61469598499090 LO-74 1 39440U 13066AA 23096.46362992 .00004039 00000-0 53007-3 0 9991 2 39440 97.7664 47.6141 0074239 260.4231 98.8586 14.78912250503558 AO-73 1 39444U 13066AE 23096.69983536 .00004927 00000-0 55609-3 0 9999 2 39444 97.6655 63.4242 0054823 146.7395 213.7287 14.85890234505613 SPROUT 1 39770U 14029E 23096.35379976 .00030579 00000-0 25169-2 0 9990 2 39770 97.9616 221.7228 0009158 190.8476 169.2346 14.99005619481387 DTUSAT-2 1 40030U 14033W 23096.35648867 .00005634 00000-0 55614-3 0 9997 2 40030 97.9629 36.0380 0011320 160.2784 199.8875 14.92332402477281 EO-80 1 40032U 14033Y 23096.39945179 .00005372 00000-0 53051-3 0 9991 2 40032 97.9635 36.0987 0011209 160.2221 199.9434 14.92337573477269 HODOYOSHI-1 1 40299U 14070B 23096.78351546 .00014844 00000-0 48207-3 0 9990 2 40299 97.2024 161.3621 0011626 166.2345 333.3402 15.31962016467877 FIREBIRD FU3 1 40377U 15003B 23096.34077730 .00102345 00000-0 14365-2 0 9997 2 40377 99.0767 35.0219 0064126 101.0514 259.7955 15.53937719453411 FIREBIRD FU4 1 40378U 15003C 23096.41073672 .00102361 00000-0 14290-2 0 9992 2 40378 99.0789 35.4125 0064221 100.0066 260.8437 15.54073781453434 GRIFEX 1 40379U 15003D 23096.81401401 .00032187 00000-0 81485-3 0 9991 2 40379 99.0796 16.7240 0091930 155.2178 205.3518 15.35376967452418 XW-2A 1 40903U 15049E 23096.71349653 .00460002 90600-4 10149-2 0 9991 2 40903 97.1197 164.6004 0003946 182.5936 276.3946 15.98035136425110 XW-2C 1 40906U 15049H 23096.87181022 .00016885 00000-0 68621-3 0 9991 2 40906 97.4968 103.8567 0014185 59.2286 12.7363 15.24537171417522 XW-2D 1 40907U 15049J 23096.84411226 .00019947 00000-0 77322-3 0 9991 2 40907 97.4949 104.1884 0013128 53.8463 30.2478 15.26095693417590 LILACSAT-2 1 40908U 15049K 23096.84439361 .00008723 00000-0 42148-3 0 9990 2 40908 97.5259 100.1452 0016312 79.9191 3.7060 15.18759453416962 XW-2E 1 40909U 15049L 23096.82546385 .00035807 00000-0 10841-2 0 9991 2 40909 97.4588 109.7879 0010407 33.2372 92.8669 15.34035862418187 XW-2F 1 40910U 15049M 23096.78726909 .00035606 00000-0 10984-2 0 9995 2 40910 97.4681 108.9664 0011327 33.2520 55.4634 15.33433447417932 XW-2B 1 40911U 15049N 23096.82922632 .00019698 00000-0 76808-3 0 9993 2 40911 97.4930 104.6516 0013021 55.3402 22.8008 15.25903448417472 DCBB 1 40912U 15049P 23096.79900361 .00043410 00000-0 11422-2 0 9994 2 40912 97.4243 113.4333 0008779 354.7005 57.3624 15.38396431418610 IO-86 1 40931U 15052B 23096.79409533 .00001712 00000-0 14731-3 0 9990 2 40931 5.9988 236.1944 0013820 2.9222 357.1034 14.77143840406785 ATHENOXAT-1 1 41168U 15077C 23096.26414990 .00106889 00000-0 23313-2 0 9991 2 41168 14.9933 59.1938 0004564 36.6712 0.8230 15.42365198405141 ChubuSat-2 1 41338U 16012B 23095.98720708 .00005386 00000-0 38019-3 0 9995 2 41338 31.0029 319.2060 0012059 179.3906 180.6746 15.03381695391500 ChubuSat-3 1 41339U 16012C 23096.78830328 .00005410 00000-0 38275-3 0 9997 2 41339 31.0128 311.0916 0011926 195.6154 247.5711 15.03303069391626 Horyu-4 1 41340U 16012D 23096.54342419 .00008933 00000-0 57866-3 0 9992 2 41340 31.0038 283.7837 0011346 246.1742 113.7706 15.06794810391906 e-st@r-II 1 41459U 16025D 23096.78929829 .00031377 00000-0 10134-2 0 9993 2 41459 98.1924 291.0702 0115096 347.2731 134.0789 15.25773724381993 AAUSAT4 1 41460U 16025E 23096.53407916 .00083673 00000-0 16852-2 0 9995 2 41460 98.1688 301.1134 0077732 308.2128 104.3118 15.43005715382675 LO-87 1 41557U 16033B 23096.94836593 .00063231 00000-0 10836-2 0 9997 2 41557 97.3833 202.4902 0006607 45.5657 65.9576 15.50982421382555 NuSat2 1 41558U 16033C 23096.82220566 .00071242 00000-0 11192-2 0 9999 2 41558 97.4102 209.8579 0006239 26.9717 130.0024 15.53387011382850 Lapan A3 1 41603U 16040E 23096.81301073 .00003641 00000-0 16201-3 0 9995 2 41603 97.1744 125.6667 0012007 201.1174 213.2299 15.22021763376639 Pratham 1 41783U 16059A 23096.52665834 .00001006 00000-0 20019-3 0 9995 2 41783 97.8774 130.8066 0032254 329.5871 30.3461 14.63818388348497 TY-1 1 41844U 16066D 23096.86815677 .00058074 00000-0 11861-2 0 9991 2 41844 97.3755 114.5629 0007100 328.1854 131.6143 15.45951591356633 CAS-2T 1 41847U 16066G 23096.51226008 .00001928 00000-0 29363-3 0 9993 2 41847 98.5097 165.3947 0361430 52.5883 310.7628 14.39490101336491 EO-88 1 42017U 17008BX 23096.43324344 .00103453 00000-0 13419-2 0 9993 2 42017 97.2206 165.7201 0003601 238.3876 121.7029 15.58494048342224 CAS-4B 1 42759U 17034B 23096.90252424 .00012430 00000-0 64419-3 0 9997 2 42759 43.0175 151.5756 0011546 354.1551 176.1116 15.16067124320810 CAS-4A 1 42761U 17034D 23096.65135294 .00011491 00000-0 59579-3 0 9994 2 42761 43.0159 151.5245 0011877 355.1280 145.6166 15.16106598320786 NIUSat 1 42766U 17036B 23096.86621480 .00025778 00000-0 74580-3 0 9993 2 42766 97.1659 129.9430 0010381 11.8044 348.3442 15.35535713321656 Aalto 1 1 42775U 17036L 23096.52225700 .00018182 00000-0 57495-3 0 9998 2 42775 97.1610 128.7376 0010327 15.1315 345.0234 15.32787522321531 URSA MAIOR 1 42776U 17036M 23096.33807344 .00021652 00000-0 65364-3 0 9998 2 42776 97.1623 129.7075 0009617 13.1538 346.9954 15.34235293321565 Max Valier Sat 1 42778U 17036P 23096.56161117 .00020613 00000-0 59919-3 0 9991 2 42778 97.1660 133.2252 0008112 15.4417 344.7073 15.35451618321723 Pegasus 1 42784U 17036V 23096.55571078 .00036163 00000-0 86203-3 0 9991 2 42784 97.1573 135.1051 0006654 9.5724 350.5649 15.41467050321925 NUDATSat 1 42787U 17036Y 23096.88200729 .00195242 00000-0 19189-2 0 9994 2 42787 97.1521 143.6632 0002060 299.5681 60.5330 15.65398610322332 SUCHAI 1 1 42788U 17036Z 23096.29983068 .00058396 00000-0 11291-2 0 9998 2 42788 97.1556 137.7907 0004678 1.6852 358.4414 15.47561497322145 SKCUBE 1 42789U 17036AA 23096.11263507 .00046021 00000-0 99277-3 0 9992 2 42789 97.1566 136.4609 0005428 6.4435 353.6882 15.44409445321962 VZLUSAT 1 1 42790U 17036AB 23096.51751611 .00149894 00000-0 15779-2 0 9992 2 42790 97.1506 143.0887 0001911 297.6009 62.5056 15.63798377322410 VENTA 1 1 42791U 17036AC 23096.06499300 .00041549 00000-0 98562-3 0 9997 2 42791 97.1582 135.7738 0005945 9.4540 350.6818 15.41588759321905 Robusta 1B 1 42792U 17036AD 23096.52932082 .00054752 00000-0 10927-2 0 9996 2 42792 97.1550 137.8434 0004584 2.6713 357.4561 15.46658359322104 D-SAT 1 42794U 17036AF 23096.46905090 .00004635 00000-0 37431-3 0 9995 2 42794 97.4637 91.9126 0118100 181.8815 178.1979 14.94930759315210 TechnoSat 1 42829U 17042E 23096.63204881 .00003381 00000-0 32786-3 0 9995 2 42829 97.3941 298.3498 0015073 104.7730 255.5162 14.93209412311816 AO-91 1 43017U 17073E 23096.52095633 .00007916 00000-0 56547-3 0 9999 2 43017 97.6406 343.7022 0235364 306.0348 51.9259 14.85083492290542 PICSAT 1 43132U 18004X 23096.21363330 .00058175 00000-0 10948-2 0 9997 2 43132 97.3362 177.8476 0004296 31.1430 329.0074 15.48346317291377 AO-92 1 43137U 18004AC 23096.43700838 .00036313 00000-0 88019-3 0 9999 2 43137 97.3334 175.1058 0005867 50.2697 309.9066 15.40966608291247 TianYi 2 1 43155U 18008A 23096.84855174 .00023308 00000-0 99630-3 0 9993 2 43155 97.3084 151.1861 0014002 194.2317 282.4666 15.22761772287784 Zhou Enlai 1 43156U 18008B 23096.87847640 .00025597 00000-0 10854-2 0 9998 2 43156 97.3133 151.2385 0011512 193.6118 280.9089 15.23043175287713 TianYi 6 1 43158U 18008D 23096.89207316 .00019979 00000-0 91058-3 0 9995 2 43158 97.3133 148.4903 0011354 197.0513 337.4430 15.20631594287577 S-Net D 1 43186U 18014G 23096.28214802 .00005547 00000-0 45132-3 0 9992 2 43186 97.6415 1.3869 0013181 48.6839 311.5516 14.99881057282775 S-Net B 1 43187U 18014H 23096.81656770 .00005437 00000-0 44245-3 0 9998 2 43187 97.6416 1.8478 0013291 46.6822 313.5507 14.99883019282851 S-Net A 1 43188U 18014J 23096.28309793 .00005578 00000-0 45377-3 0 9993 2 43188 97.6420 1.4060 0013261 48.1484 312.0869 14.99879030282772 S-Net C 1 43189U 18014K 23096.55153790 .00005453 00000-0 44380-3 0 9993 2 43189 97.6419 1.5720 0013447 46.1175 314.1157 14.99876161281365 Shaonian Xing 1 43199U 18015H 23096.76710558 .00114071 00000-0 14928-2 0 9990 2 43199 97.5398 251.2828 0005525 67.9857 45.0463 15.58208844288630 CubeBel-1 1 43666U 18083E 23096.80739510 .00034670 00000-0 10644-2 0 9995 2 43666 97.3905 128.1945 0010429 28.7832 25.9503 15.33599907246249 Changshagaoxin 1 43669U 18083H 23096.77476027 .00030123 00000-0 10095-2 0 9994 2 43669 97.3883 123.1386 0008372 31.9283 84.4471 15.30836746246001 Ten-Koh 1 43677U 18084G 23096.36142321 .00002992 00000-0 29603-3 0 9995 2 43677 98.0006 235.0044 0015613 29.9430 330.2678 14.92586474241346 PO-101 1 43678U 18084H 23096.82642154 .00003249 00000-0 31687-3 0 9997 2 43678 98.0081 239.4167 0010300 44.0285 316.1755 14.93148300241610 QO-100 1 43700U 18090A 23096.53727928 .00000152 00000-0 00000-0 0 9993 2 43700 0.0151 238.8786 0001249 160.1530 14.7746 1.00274767 15961 Reaktor Hello World 1 43743U 18096AA 23096.53293308 .00053230 00000-0 94792-3 0 9995 2 43743 97.3220 181.9854 0010725 88.5738 271.6742 15.49896023243045 MinXSS-2 1 43758U 18099A 23096.13176239 .00008557 00000-0 68190-3 0 9998 2 43758 97.5880 161.8291 0016549 12.8467 347.3175 15.00477466236930 AO-95 1 43770U 18099N 23096.15478462 .00005719 00000-0 47558-3 0 9999 2 43770 97.5791 159.6472 0013412 14.8041 345.3573 14.99014580236815 RANGE-B 1 43772U 18099Q 23096.17000149 .00008207 00000-0 65556-3 0 9999 2 43772 97.5888 162.1881 0009117 358.2606 1.8585 15.00473920236868 RANGE-A 1 43773U 18099R 23096.40538622 .00003782 00000-0 32538-3 0 9995 2 43773 97.5723 158.1861 0012794 7.4926 352.6485 14.97909108236811 MOVE-II 1 43780U 18099Y 23096.40394152 .00012685 00000-0 96562-3 0 9990 2 43780 97.5750 162.0043 0009414 38.8089 321.3810 15.02189886236958 SNUSat 2 1 43782U 18099AA 23096.11609644 .00006241 00000-0 51942-3 0 9999 2 43782 97.5795 160.1248 0010787 8.0515 352.0880 14.98972815236834 SnugLite 1 43784U 18099AC 23096.15989375 .00006117 00000-0 50239-3 0 9997 2 43784 97.5746 159.8043 0013306 4.5543 355.5799 14.99469243236870 ITASat 1 1 43786U 18099AE 23096.34414744 .00004846 00000-0 40569-3 0 9995 2 43786 97.5847 160.8646 0014597 11.8888 348.2677 14.98822985236881 EAGLET 1 1 43790U 18099AJ 23096.90289238 .00003934 00000-0 33286-3 0 9995 2 43790 97.5807 161.9206 0012355 9.5378 350.6078 14.98537078236703 ESEO 1 43792U 18099AL 23096.59601213 .00003149 00000-0 27597-3 0 9999 2 43792 97.5773 160.2929 0012992 14.6633 345.4963 14.97303623236676 CSIM 1 43793U 18099AM 23096.18810886 .00011258 00000-0 84499-3 0 9997 2 43793 97.5848 163.0169 0015802 16.4621 343.7114 15.02694002236767 Astrocast 0.1 1 43798U 18099AS 23096.19331442 .00010561 00000-0 82071-3 0 9999 2 43798 97.5926 162.4339 0014327 345.8222 14.2598 15.01406516236966 JO-97 1 43803U 18099AX 23096.15649949 .00006357 00000-0 51591-3 0 9997 2 43803 97.5771 160.6124 0013430 0.0890 0.0333 14.99916243236899 Suomi 100 1 43804U 18099AY 23096.53872822 .00006214 00000-0 50740-3 0 9995 2 43804 97.5820 160.8185 0014915 11.1848 348.9705 14.99672850236956 Al Farabi 2 1 43805U 18099AZ 23096.88918676 .00009499 00000-0 74603-3 0 9994 2 43805 97.5816 162.1126 0008040 352.7648 7.3437 15.01084921237056 CHOMPTT 1 43855U 18104G 23096.37521559 .00029359 00000-0 81400-3 0 9990 2 43855 85.0349 214.8589 0013149 224.6758 135.3434 15.36711179239531 ISAT 1 43879U 18111D 23096.27635870 .00008774 00000-0 68371-3 0 9995 2 43879 97.6523 1.7570 0015776 39.5184 320.7187 15.01338092233548 UWE-4 1 43880U 18111E 23096.52984561 .00007456 00000-0 58295-3 0 9999 2 43880 97.6451 2.8477 0018321 60.1329 300.1713 15.01227158233613 Sparrow 1 43881U 18111F 23096.56658524 .00008277 00000-0 64055-3 0 9994 2 43881 97.6497 3.3198 0013296 82.1716 278.1018 15.01647164233637 Lume 1 1 43908U 18111AJ 23096.54052796 .00032552 00000-0 76887-3 0 9990 2 43908 97.1514 341.0468 0016292 99.9366 260.3721 15.41647716238333 FO-99 1 43937U 19003F 23096.27243101 .00046690 00000-0 97430-3 0 9990 2 43937 97.0962 124.7182 0016069 170.8193 189.3353 15.45261548234919 AstroCast 0.2 1 44083U 19018F 23096.59246646 .00055290 00000-0 13022-2 0 9991 2 44083 97.2760 156.1485 0008239 165.4415 194.7071 15.41720898223359 AISTechSat 3 1 44103U 19018AB 23096.13365350 .00031756 00000-0 87223-3 0 9994 2 44103 97.2632 155.2611 0010849 166.1366 268.8817 15.37112905223422 AISat 1 1 44104U 19018AC 23096.26421277 .00026066 00000-0 55865-3 0 9995 2 44104 97.3731 186.4654 0044377 158.8577 201.4518 15.43656490224614 Prox-1 1 44339U 19036A 23096.48426388 .00007764 00000-0 15958-2 0 9999 2 44339 24.0002 140.0589 0010221 191.4926 168.5334 14.58397950201114 Move-IIb 1 44398U 19038N 23096.68281754 .00047632 00000-0 14645-2 0 9994 2 44398 97.6592 76.4909 0015990 172.6060 187.5420 15.33408526207686 SONATE 1 44400U 19038Q 23096.43453967 .00012027 00000-0 56412-3 0 9997 2 44400 97.6786 72.7134 0020604 195.4291 164.6318 15.19632521207333 BeeSat 9 1 44412U 19038AC 23096.44876958 .00025038 00000-0 96260-3 0 9991 2 44412 97.6707 74.9419 0016108 187.0799 173.0214 15.26283731207201 JAISAT-1 1 44419U 19038F 23096.47986308 .00024303 00000-0 92461-3 0 9995 2 44419 97.6708 76.0208 0015442 182.5760 177.5401 15.26648063207587 Taurus 1 1 44530U 19059C 23096.85042975 .00007090 00000-0 18639-2 0 9995 2 44530 98.5474 203.6142 0011340 308.9358 51.0813 14.49378652188305 Duchifat 3 1 44854U 19089C 23096.54822419 .00011765 00000-0 81708-3 0 9994 2 44854 36.9637 159.0433 0007728 93.7976 59.6386 15.04987975182037 OPS-SAT 1 44878U 19092F 23096.77094189 .00028628 00000-0 96849-3 0 9992 2 44878 97.4774 284.7837 0009134 34.5985 325.5848 15.30537546182859 TO-108 1 44881U 19093C 23096.88478314 .00001725 00000-0 22187-3 0 9998 2 44881 97.8636 176.5509 0013900 314.8223 45.1830 14.82349219178230 FloripaSat 1 1 44885U 19093G 23096.67949179 .00006142 00000-0 72203-3 0 9993 2 44885 97.8697 178.6633 0012806 317.6698 42.3493 14.85176457178333 RS-44 1 44909U 19096E 23096.29537669 .00000019 00000-0 33321-4 0 9994 2 44909 82.5252 35.7086 0217522 355.3846 4.5245 12.79719717152968 BY70-2 1 45857U 20042B 23096.84795687 .00026651 00000-0 29314-2 0 9992 2 45857 97.9274 176.6493 0009313 230.5886 129.4434 14.87530502148929 UPMSat 2 1 46276U 20061E 23096.92377242 .00009632 00000-0 42301-3 0 9993 2 46276 97.3529 166.0345 0001499 156.0921 204.0385 15.22131162143446 AmicalSat 1 46287U 20061R 23096.94054769 .00014559 00000-0 71528-3 0 9990 2 46287 97.4065 164.8634 0001558 21.9940 338.1361 15.18153241142896 SALSAT 1 46495U 20068K 23096.42911953 .00005810 00000-0 39155-3 0 9998 2 46495 97.7642 43.7416 0016121 11.5732 348.5863 15.06965043138266 BY70-3 1 46839U 20079N 23096.36045889 .08834687 23464-5 14923-2 0 9990 2 46839 97.1350 174.5599 0013427 271.3719 153.1038 16.32944071135764 CAPE 3 1 47309U 21002A 23096.12019923 .00034659 00000-0 96481-3 0 9993 2 47309 60.6803 337.0389 0029900 141.5001 218.8233 15.36180858123191 AO-109 1 47311U 21002C 23096.23734708 .00027062 00000-0 78594-3 0 9998 2 47311 60.6828 334.3704 0028373 137.3068 223.0237 15.35015724123225 MiTEE 1 1 47314U 21002F 23096.27858697 .00151610 00000-0 18235-2 0 9991 2 47314 60.6713 310.5426 0019926 132.8082 227.4702 15.59797863123657 ExoCube 2 1 47319U 21002L 23096.72468378 .00025104 00000-0 74436-3 0 9993 2 47319 60.6813 334.3811 0028845 139.8692 220.4539 15.34386971123231 UVSQ-SAT 1 47438U 21006AB 23096.10099684 .00018029 00000-0 78946-3 0 9999 2 47438 97.3932 154.3330 0009153 342.3910 17.7008 15.22046637121676 YUSAT 1 1 47439U 21006AC 23096.16354158 .00021417 00000-0 88791-3 0 9990 2 47439 97.3938 154.9091 0008471 340.0682 20.0223 15.23873228121712 SOMP 2b 1 47445U 21006AJ 23096.12242625 .00016952 00000-0 75679-3 0 9997 2 47445 97.3900 153.7116 0009116 348.0766 12.0253 15.21399013121651 IDEASSat 1 47458U 21006AX 23096.14497048 .00014636 00000-0 66247-3 0 9992 2 47458 97.3995 154.4801 0008371 347.5751 12.5277 15.20964463121644 CubeSX-Sirius-HSE 1 47951U 21022V 23096.78486640 .00013317 00000-0 77686-3 0 9998 2 47951 97.5043 355.3505 0017913 216.9770 228.8686 15.11943190112238 CubeSX-HSE 1 47952U 21022W 23096.82001353 .00012744 00000-0 74243-3 0 9997 2 47952 97.5049 355.4263 0017730 216.1362 190.0423 15.12004672112247 KSU-Cubesat 1 47954U 21022Y 23096.56931823 .00011205 00000-0 64151-3 0 9992 2 47954 97.5058 355.4668 0017343 214.9547 145.0547 15.12671236111948 GRBAlpha 1 47959U 21022AD 23096.81509351 .00012756 00000-0 74182-3 0 9999 2 47959 97.5048 355.4931 0017574 216.6487 216.0593 15.12070704111069 Orbicraft-Zorkiy 1 47960U 21022AE 23096.86638588 .00014231 00000-0 81467-3 0 9995 2 47960 97.5080 355.8781 0017219 215.5651 208.8135 15.12615976111776 STECCO 1 47962U 21022AG 23096.79386748 .00023912 00000-0 11971-2 0 9995 2 47962 97.5052 357.6305 0012276 201.9120 228.6372 15.17326962111207 DO-111 1 47963U 21022AH 23096.18225962 .00111290 00000-0 28517-2 0 9990 2 47963 97.5061 1.9808 0010423 166.6548 193.4975 15.38891382111448 MO-110 1 47964U 21022AJ 23096.27237526 .00021522 00000-0 10577-2 0 9995 2 47964 97.5064 357.6180 0014821 199.9263 160.1394 15.17966662111150 FEES 1 48082U 21022AL 23096.27994660 .00035587 00000-0 15422-2 0 9996 2 48082 97.5059 358.2952 0010831 189.6348 170.4682 15.22241759110902 CSS 1 48274U 21035A 23095.88352392 .00047055 00000-0 48664-3 0 9997 2 48274 41.4739 236.7382 0003473 283.6975 216.3526 15.63905670110529 TUBIN 1 48900U 21059X 23096.83219278 .00013480 00000-0 66381-3 0 9991 2 48900 97.5866 230.0954 0010069 164.5730 348.9025 15.18054477 98346 IT-SPINS 1 49017U 21013G 23096.65347110 .00035353 00000-0 94735-3 0 9995 2 49017 51.5933 68.2809 0009711 63.8317 296.3664 15.37614011 98684 LEDSAT 1 49069U 21073D 23096.91700870 .00009496 00000-0 54031-3 0 9997 2 49069 97.4877 169.0498 0024432 10.4011 349.7721 15.12810296 90121 CUTE 1 49263U 21088D 23096.15807075 .00010479 00000-0 69761-3 0 9999 2 49263 97.5503 163.2541 0019907 146.2631 213.9868 15.07144261 83432 TeikyoSat 4 1 49396U 21102B 23096.91883008 .00001647 00000-0 13037-3 0 9999 2 49396 97.5185 151.1061 0013619 338.7573 21.3085 15.01888423 77079 Z-Sat 1 49399U 21102E 23096.92450890 .00003048 00000-0 22225-3 0 9998 2 49399 97.4923 152.2044 0020873 315.2694 44.6848 15.04292039 77179 KOSEN 1 1 49402U 21102H 23096.87853370 .00005011 00000-0 34769-3 0 9995 2 49402 97.4865 152.5559 0019431 304.0719 55.8664 15.05876171 77227 HO-113 1 50466U 21131B 23096.89230046 .00000963 00000-0 32765-3 0 9995 2 50466 98.5530 178.6622 0004084 10.8820 349.2455 14.38807565 67103 Tevel-3 1 50988U 22002E 23096.87687476 .00025145 00000-0 10953-2 0 9996 2 50988 97.4407 164.4548 0009512 124.5775 324.1897 15.22154550 67909 Tevel-8 1 50989U 22002F 23096.82767681 .00025294 00000-0 11037-2 0 9998 2 50989 97.4431 164.4588 0009623 122.7923 330.0563 15.22093020 67897 Tevel-5 1 50998U 22002Q 23096.86135169 .00026176 00000-0 11159-2 0 9997 2 50998 97.4396 164.7454 0010901 120.8370 349.2869 15.22865090 67927 Tevel-6 1 50999U 22002R 23096.85994459 .00026046 00000-0 11103-2 0 9997 2 50999 97.4395 164.7393 0010810 120.3756 349.7804 15.22869027 67929 Tevel-1 1 51013U 22002AF 23096.87930422 .00025186 00000-0 10982-2 0 9995 2 51013 97.4403 164.4099 0009508 124.2016 295.0981 15.22117059 67909 Grizu-263a 1 51025U 22002AT 23096.42231513 .00068252 00000-0 20161-2 0 9995 2 51025 97.4557 167.6662 0009602 128.9924 231.2176 15.34657339 68011 NO-116 1 51031U 22002AZ 23096.11570077 .00038481 00000-0 14272-2 0 9996 2 51031 97.4531 165.8282 0011413 126.0641 234.1657 15.27440548 67880 IRIS-A 1 51044U 22002BN 23096.12362728 .00012318 00000-0 61008-3 0 9994 2 51044 97.4420 162.7352 0009863 128.0921 232.1204 15.17872202 67728 Tevel-7 1 51062U 22002CG 23096.82943447 .00025323 00000-0 11046-2 0 9990 2 51062 97.4420 164.4350 0009629 123.6501 329.6945 15.22103866 67891 Tevel-4 1 51063U 22002CH 23096.83673080 .00025286 00000-0 11043-2 0 9990 2 51063 97.4419 164.4315 0009540 122.2846 349.4838 15.22065067 67891 Tevel-2 1 51069U 22002CP 23096.87871480 .00025186 00000-0 10970-2 0 9991 2 51069 97.4403 164.4301 0009496 124.5764 324.0342 15.22155793 67906 DELFI-PQ 1 51074U 22002CU 23096.14129941 .00043171 00000-0 14768-2 0 9998 2 51074 97.4658 167.7750 0011917 151.2313 208.9587 15.30056569 67963 SO-115 1 51080U 22002DA 23096.63440760 .00023148 00000-0 91888-3 0 9995 2 51080 97.4668 167.3508 0012672 150.3358 209.8601 15.25276368 67979 SO-114 1 51081U 22002DB 23096.16985124 .00026363 00000-0 10426-2 0 9992 2 51081 97.4669 166.8517 0012835 151.6836 208.5102 15.25372159 67901 OreSat0 1 52017U 22026K 23096.45777830 .00019373 00000-0 83875-3 0 9995 2 52017 97.5109 98.7642 0022303 341.7151 18.3281 15.22230245 58626 Planetum 1 1 52738U 22057G 23096.75486801 .00016356 00000-0 80390-3 0 9994 2 52738 97.5293 212.8922 0007115 229.8447 130.2164 15.18096897 47819 Foresail-1 1 52766U 22057AL 23096.80037559 .00014484 00000-0 71596-3 0 9991 2 52766 97.5392 213.7836 0012349 213.3453 298.3214 15.17880615 47847 SNUGLITE 2 1 52899U 22065F 23096.35663755 .00001810 00000-0 39411-3 0 9999 2 52899 98.0569 243.2491 0009195 84.0707 276.1541 14.59081650 40387 CTIM 1 52950U 22074G 23096.25683562 .00054575 00000-0 14947-2 0 9996 2 52950 45.0012 39.4790 0010127 130.7083 229.4695 15.36549989 42518 IO-117 1 53106U 22080B 23088.05176028 -.00000003 00000-0 00000-0 0 9991 2 53106 70.1795 347.5677 0008286 204.3079 155.7190 6.42557135 16603 SelfieSat 1 53951U 22057BC 23096.32591584 .00021824 00000-0 10381-2 0 9998 2 53951 97.5343 212.9023 0009493 226.3016 133.7433 15.19157515 47768 FO-118 1 54684U 22167C 23096.88461427 .00017381 00000-0 10083-2 0 9999 2 54684 97.5491 235.0898 0014060 217.7428 294.5607 15.12136907 17894 /EX